Theta_e
299 298 298 297 297 297 296 296 296 296 296 296 296 296 296 296 296 296 296 296 296 296 296 296 296 296 296 297 297 297 297 297 297 296 296 296 296 296 296 296 296 296 296 295 295 295 295 295 295 295 295 295 295 295 295 295 295 295 294 294 294 294 294 295 295 295 295 296 296 296 296 297 297 297 297 297 298 298 298 298 299 299 298 298 298 299
298 297 296 296 296 296 296 296 295 295 295 295 295 295 295 295 296 296 295 296 296 296 296 296 296 296 296 296 296 297 297 297 296 296 296 296 296 296 296 296 295 295 295 295 295 294 294 294 294 294 294 294 294 294 294 294 293 293 293 293 293 293 293 293 293 294 294 294 294 295 295 295 295 295 295 296 296 297 297 298 298 298 298 298 298 298
298 297 296 296 295 296 295 295 295 295 295 295 295 295 295 295 295 295 295 295 295 295 296 296 295 295 295 295 295 296 296 296 296 296 296 296 296 296 295 295 295 295 294 294 294 294 294 293 293 293 293 293 293 293 292 292 292 292 292 292 292 292 292 293 293 293 294 294 294 294 294 295 295 295 295 295 296 296 297 297 297 297 297 298 298 298
298 297 296 295 295 295 295 295 294 294 294 294 294 294 294 294 294 294 294 295 295 295 295 295 295 295 295 295 295 295 295 294 294 294 294 294 294 294 294 294 294 294 294 293 293 293 293 293 293 293 292 292 292 292 292 292 292 292 292 292 292 292 293 293 293 294 294 294 294 294 294 295 295 295 295 296 296 296 296 297 297 297 297 297 297 298
297 296 295 295 295 295 294 294 294 294 294 294 294 294 294 293 293 294 294 294 294 294 294 294 294 294 294 294 294 293 293 293 292 292 292 292 292 292 293 293 293 293 293 293 293 293 293 293 292 292 292 291 291 291 292 292 292 292 291 292 292 292 292 292 292 293 293 293 294 294 294 294 294 294 295 295 295 296 296 296 296 296 297 297 297 297
296 295 295 295 295 294 294 294 294 294 294 294 294 294 294 293 293 293 293 293 293 293 293 293 293 293 294 293 293 292 292 291 291 291 290 290 291 291 292 292 292 292 292 292 292 292 292 292 291 291 291 291 291 291 291 291 291 291 291 291 291 291 291 291 291 291 292 292 292 293 293 293 293 294 294 294 294 295 295 295 296 296 296 296 296 296
296 295 294 294 294 294 294 294 294 293 294 294 294 294 294 294 293 293 293 293 293 293 293 293 293 293 293 293 292 291 291 291 290 290 290 290 290 290 290 291 291 291 291 291 291 291 291 291 291 291 291 291 290 290 290 290 290 290 290 290 290 290 289 289 290 290 290 291 291 292 292 292 293 293 293 293 293 294 294 294 295 295 295 295 296 296
295 295 295 295 295 294 294 294 294 293 294 294 294 295 295 294 294 294 293 293 293 293 292 293 293 293 293 292 291 291 290 290 290 290 290 290 289 289 289 290 290 290 290 290 290 290 290 290 290 290 290 290 290 290 289 289 289 289 289 289 289 288 288 288 288 289 289 289 290 290 291 291 292 292 292 293 293 293 293 293 294 294 294 295 295 295
295 295 295 295 295 295 295 294 294 293 293 293 294 294 294 294 294 294 294 293 293 292 292 292 292 292 292 291 291 290 290 290 289 289 289 289 289 289 289 289 289 289 289 289 289 289 290 290 290 289 289 289 289 288 288 288 288 288 288 288 287 287 287 287 287 287 288 288 289 289 290 290 291 291 292 292 292 292 293 293 293 293 294 294 294 294
295 294 294 294 294 294 295 294 294 293 292 292 293 293 293 294 294 294 294 294 293 292 291 291 291 291 291 290 290 289 289 289 289 289 289 289 289 289 289 288 288 288 288 288 288 288 288 288 288 288 288 288 288 287 287 287 287 287 287 287 287 287 287 287 287 287 287 288 288 289 289 290 290 290 291 291 292 292 292 292 293 293 293 293 293 294
294 294 294 294 294 294 294 294 294 293 292 292 292 292 293 292 292 292 293 293 293 292 291 290 290 290 290 289 289 289 289 288 288 288 288 288 288 288 288 288 288 288 287 287 287 287 287 287 287 287 287 287 287 287 287 287 286 286 286 286 286 286 286 286 286 286 287 287 288 288 288 289 289 289 290 291 291 291 292 292 292 292 293 293 293 293
295 294 294 294 294 293 293 293 293 293 292 292 293 293 293 292 291 291 291 292 292 291 290 290 290 289 289 289 288 288 288 288 288 288 288 288 288 288 288 288 287 287 287 287 287 287 287 287 287 287 287 287 287 287 286 286 286 286 286 286 286 285 285 285 285 285 285 286 286 287 288 288 288 289 289 289 290 290 291 291 292 292 292 292 293 293
294 294 294 294 293 293 293 293 292 292 292 292 292 292 292 290 290 290 290 290 290 290 289 289 289 289 289 289 288 288 288 288 288 288 288 288 288 288 288 287 287 287 287 287 287 287 287 287 287 287 287 287 286 286 286 286 285 285 285 285 285 284 284 284 284 284 284 285 286 287 287 288 288 288 288 289 289 289 290 290 290 291 291 291 292 292
293 293 293 293 293 292 292 292 292 292 291 291 290 290 290 289 289 289 289 290 290 289 289 289 289 289 289 289 288 288 288 287 287 287 287 288 288 288 288 287 287 287 287 287 287 287 287 287 287 287 286 286 286 286 285 285 285 285 284 284 284 284 285 285 285 285 285 286 286 287 287 288 288 288 288 288 289 289 289 289 290 290 290 290 291 291
292 292 292 292 292 291 291 291 291 290 290 289 289 289 289 289 289 289 289 289 289 289 289 289 289 289 289 288 288 288 288 287 287 287 287 287 287 287 288 287 287 287 287 287 286 286 286 286 286 286 286 285 285 285 285 285 284 284 284 284 284 285 286 286 286 287 287 287 287 288 288 288 288 289 289 289 289 289 289 289 289 289 290 290 290 290
291 291 291 291 291 291 290 290 290 290 289 289 288 288 289 289 289 289 289 289 289 289 289 289 289 289 289 288 288 288 287 287 287 287 287 287 287 287 287 287 287 287 286 286 286 285 285 285 285 285 285 285 285 285 285 284 284 284 283 284 285 285 286 286 287 287 287 288 288 288 288 288 289 289 289 289 289 289 289 290 290 290 290 290 290 290
291 291 291 291 291 290 290 289 289 289 289 288 288 288 288 288 288 288 288 288 288 288 288 288 288 288 288 288 288 287 287 287 286 286 286 286 286 286 286 287 287 286 286 285 285 285 284 284 284 285 284 285 285 285 284 284 283 283 283 284 284 285 286 286 286 287 287 287 287 288 288 288 288 289 289 289 289 290 290 290 290 290 290 290 290 290
290 290 290 290 290 290 289 289 289 289 288 288 288 288 288 288 288 287 287 287 287 288 288 288 288 287 287 288 288 286 287 286 286 285 285 285 285 285 286 286 286 286 285 285 284 284 284 284 284 284 284 284 284 284 283 283 283 283 283 284 284 285 285 286 286 286 287 287 287 287 288 288 288 288 289 289 289 289 289 290 290 290 290 290 290 290
290 290 289 289 290 289 289 289 288 288 288 288 288 288 288 288 288 287 287 287 287 287 287 287 287 287 287 287 287 286 286 286 285 285 285 285 285 285 286 286 286 285 285 284 284 284 284 284 284 284 284 284 284 283 283 284 284 284 284 285 285 285 285 285 286 286 287 287 287 287 287 288 288 288 288 288 288 289 289 289 290 290 290 291 291 291
290 289 289 289 289 289 289 288 288 288 288 288 287 287 288 288 288 287 287 287 287 286 286 286 286 286 286 286 287 286 286 285 285 285 284 285 285 285 285 285 285 285 284 284 284 283 283 284 284 284 284 284 284 284 284 284 284 284 284 284 285 285 285 285 285 286 286 286 287 287 287 287 288 288 288 288 288 288 289 289 289 289 290 290 291 291
289 289 289 289 288 288 288 288 288 288 287 287 287 287 287 287 287 287 287 287 286 286 286 286 286 286 286 286 286 286 286 285 285 284 284 284 284 284 285 285 285 284 284 284 283 283 284 284 284 284 284 284 284 284 284 284 284 284 284 284 284 285 285 285 285 285 285 286 286 287 287 287 287 288 288 288 288 288 288 289 289 289 289 289 290 290
289 289 289 288 288 288 288 288 288 287 287 286 286 286 286 286 286 286 286 286 286 285 285 286 286 285 285 285 285 285 285 285 284 284 284 284 284 284 284 285 284 284 284 284 283 284 284 284 284 284 284 284 284 284 284 284 284 283 283 283 284 285 286 286 286 286 287 287 287 287 287 288 288 288 288 288 288 288 288 288 289 289 289 289 289 290
288 288 288 288 287 287 287 287 287 287 286 286 286 286 286 285 285 285 285 285 285 285 285 285 285 285 285 285 284 284 285 285 285 284 284 284 284 284 284 284 284 284 284 284 284 284 283 284 284 284 284 284 284 284 284 284 284 283 283 284 284 285 286 286 287 287 287 288 288 288 288 288 288 288 288 288 288 289 289 289 289 289 289 289 289 290
288 288 288 287 287 287 287 287 286 286 286 286 285 285 285 285 285 285 285 285 285 285 285 285 285 285 285 285 285 286 286 285 285 285 284 284 284 284 284 284 284 284 284 284 284 283 283 283 283 284 284 284 284 284 284 284 284 283 283 284 284 285 285 286 286 286 286 287 287 287 287 288 288 288 288 289 289 289 289 289 289 289 289 290 290 290
287 287 287 287 286 286 286 286 286 285 285 285 285 285 285 285 285 285 285 285 285 285 285 285 285 285 286 286 286 286 286 286 285 285 284 284 284 284 283 284 284 284 284 284 283 283 283 283 283 284 284 284 285 284 284 284 283 283 283 284 284 285 285 285 285 285 286 286 286 286 287 287 287 287 287 288 288 288 288 289 289 289 289 289 290 290
286 286 286 286 286 286 285 285 285 285 285 285 285 285 285 285 285 285 285 285 285 285 285 285 285 285 285 285 285 285 286 285 285 285 284 284 283 283 283 283 284 284 284 283 283 283 283 283 284 284 284 284 284 284 284 283 283 283 283 283 283 284 284 284 284 284 285 285 285 285 286 286 286 287 287 287 287 287 288 288 288 288 288 288 288 288
285 285 285 285 285 285 285 285 285 285 285 285 285 285 285 285 284 284 284 284 285 285 285 285 285 285 285 284 285 285 285 285 285 284 284 283 283 283 283 283 283 283 283 283 283 283 283 284 284 284 284 284 284 284 283 283 283 283 283 283 283 283 283 283 283 283 284 284 284 284 285 285 286 286 286 287 287 287 287 287 287 287 288 288 288 288
284 284 284 284 284 284 284 284 284 284 285 285 285 285 285 284 284 284 284 284 284 285 285 285 284 284 284 284 284 284 284 284 284 284 284 283 283 283 283 283 283 283 283 283 283 283 284 284 284 284 285 284 284 284 283 283 283 284 284 284 284 284 284 284 283 283 283 283 283 283 284 284 285 285 286 286 286 287 287 287 287 287 287 287 287 287
284 284 284 284 284 284 284 284 284 284 284 284 284 284 284 284 284 284 284 284 284 284 284 284 284 284 283 283 283 283 283 284 284 284 284 283 283 283 283 283 284 284 283 283 283 284 284 285 285 285 285 284 284 284 284 284 284 284 284 284 284 284 284 284 283 283 283 283 283 283 283 283 284 284 285 285 286 286 286 287 287 287 287 287 287 287
285 285 285 284 284 284 284 284 284 284 284 284 284 284 284 283 283 283 283 283 283 283 283 283 283 283 283 283 283 283 283 284 284 284 284 283 283 283 283 283 284 283 283 283 283 283 284 285 285 285 285 284 284 284 284 284 284 284 284 284 284 284 284 284 283 283 283 283 283 283 283 283 283 283 284 285 285 285 286 286 286 286 286 286 286 286
285 285 285 285 285 284 284 284 284 284 284 283 283 283 283 283 283 283 283 283 283 283 283 283 283 283 283 283 283 283 284 284 284 284 283 283 283 283 283 283 283 283 283 283 283 283 284 284 285 285 284 284 284 284 284 284 284 284 283 283 283 283 283 283 283 283 283 283 283 283 283 283 283 283 283 284 284 285 285 285 286 286 286 286 286 286
285 285 285 285 284 284 284 284 284 283 283 283 282 282 282 282 282 282 282 282 282 282 282 282 282 282 282 283 283 283 283 284 284 284 283 283 283 283 283 283 283 283 283 283 283 283 283 283 284 284 284 283 283 283 283 283 283 283 284 283 283 283 283 283 283 283 283 283 283 283 283 283 283 283 283 283 283 284 284 285 285 285 285 285 285 285
284 284 284 284 284 284 284 283 283 283 282 282 281 281 281 281 281 281 281 281 281 281 281 282 282 282 282 283 283 283 283 284 284 284 283 283 283 283 283 283 283 283 283 283 283 283 283 283 283 283 283 283 283 283 283 283 283 283 284 283 283 283 283 283 283 283 283 283 283 283 284 283 283 283 283 283 283 283 284 284 284 285 285 285 285 285
284 284 283 283 283 283 283 283 282 282 281 281 281 280 280 280 280 280 280 280 280 281 281 281 282 282 282 283 283 283 283 284 284 284 283 283 283 283 283 282 282 283 283 283 283 283 283 283 283 283 283 283 283 283 283 283 283 283 283 283 283 283 283 283 283 283 283 283 283 283 283 283 284 284 284 284 284 284 284 284 284 284 284 285 285 285
283 283 283 283 283 282 282 282 282 281 281 281 281 281 281 280 280 281 281 280 280 280 281 281 281 282 282 283 283 283 283 284 284 283 283 283 282 282 282 282 282 282 282 282 282 282 282 282 282 282 282 282 282 282 283 283 283 283 283 283 283 283 283 283 283 283 283 283 283 283 283 283 283 284 284 284 284 284 284 284 284 284 284 284 285 285
282 282 282 282 282 282 282 281 281 281 281 281 281 281 281 281 281 281 281 281 281 281 281 281 281 281 282 282 282 283 283 283 283 283 282 282 282 282 282 282 282 282 282 282 282 282 282 282 282 282 282 282 282 282 283 283 283 283 283 283 283 283 283 283 283 283 283 283 283 283 283 283 283 284 284 284 284 284 284 284 284 284 284 284 284 285
281 281 281 281 281 281 281 281 281 281 281 281 281 281 281 281 281 281 281 281 281 281 281 281 281 281 281 282 282 282 282 282 282 282 282 282 282 281 281 281 281 282 282 282 282 282 281 281 281 282 282 282 282 282 283 283 283 283 282 282 282 282 282 283 283 283 283 283 283 283 284 284 283 283 283 283 284 284 284 284 284 284 284 284 284 285
281 281 281 281 281 281 281 281 281 281 281 281 281 281 281 281 281 281 281 281 281 281 281 281 281 281 281 281 281 281 281 281 281 281 281 281 281 281 281 281 281 281 281 281 281 281 281 281 281 281 282 282 282 282 282 282 282 282 282 282 282 282 282 283 283 283 283 283 283 284 284 284 284 283 283 283 283 283 283 283 284 284 284 284 284 284
281 281 281 281 281 281 281 281 281 281 281 281 281 281 281 281 280 281 281 281 281 281 281 280 280 280 280 280 280 280 280 280 280 280 280 280 280 280 280 280 280 280 281 281 281 281 281 281 281 281 281 281 282 282 282 282 282 282 282 282 282 282 282 283 283 283 283 283 283 283 284 284 284 284 283 283 283 283 283 283 283 283 284 284 284 284
281 281 281 281 282 281 281 281 281 281 281 281 280 280 280 280 280 280 280 280 281 281 281 280 280 280 280 280 280 280 280 280 280 280 280 280 280 280 280 280 280 280 280 281 281 281 281 281 281 281 281 281 281 281 281 281 281 282 282 282 282 282 283 283 283 283 283 283 283 283 283 283 284 284 284 283 283 283 283 283 283 283 283 284 284 284
281 281 281 281 281 281 281 281 281 280 280 280 280 280 280 279 280 280 280 280 281 281 281 281 280 280 280 280 280 280 280 280 280 280 281 281 281 280 280 280 279 280 280 280 280 281 281 281 281 281 281 281 281 281 281 281 281 282 282 282 282 282 282 282 283 283 283 283 283 283 283 284 284 284 284 284 283 283 283 283 283 283 283 284 284 284
281 281 281 281 281 281 281 280 280 280 280 280 279 279 279 279 280 280 280 281 281 281 281 281 281 281 281 280 281 281 281 281 281 280 280 280 281 281 280 280 279 279 280 280 280 280 280 281 281 281 281 281 281 281 281 281 281 281 282 282 282 282 282 282 283 283 283 283 283 284 284 284 284 284 284 284 284 284 284 284 284 284 284 284 284 283
281 281 281 281 281 280 280 280 279 279 279 279 279 279 279 280 280 280 280 280 280 280 280 280 280 281 281 281 281 281 281 281 281 281 280 280 281 281 280 280 280 279 279 280 280 280 280 280 280 281 281 281 281 281 281 281 281 281 281 282 282 282 282 282 283 283 283 283 283 284 284 284 284 284 284 284 284 284 284 284 284 284 284 284 284 284
280 280 280 280 280 279 279 279 278 279 279 279 279 280 280 280 280 280 280 280 280 280 280 280 280 280 280 281 281 281 281 281 281 281 281 281 281 281 281 280 280 279 279 280 280 280 280 281 281 281 281 281 281 281 281 281 281 281 281 282 282 282 282 282 283 283 283 283 283 283 283 283 283 284 284 284 284 284 284 284 284 284 284 284 284 284
280 279 279 279 279 278 278 278 279 279 279 279 280 280 280 280 281 281 280 280 280 280 280 280 280 280 281 281 281 281 281 282 282 281 281 281 281 281 281 281 280 280 280 280 280 280 280 281 281 281 281 281 281 281 281 281 281 281 282 282 282 282 282 282 283 283 283 283 283 283 283 283 283 284 284 284 284 284 284 284 284 284 284 284 284 284
279 279 279 278 278 278 278 278 279 279 279 280 280 280 280 281 281 281 280 280 280 280 280 280 280 280 281 281 281 281 281 282 282 282 282 282 281 281 281 281 281 280 280 280 280 280 280 280 281 281 281 281 281 281 281 281 281 282 282 282 282 282 283 283 283 283 283 283 283 283 283 283 283 284 284 283 284 284 284 284 284 284 284 284 284 284
279 279 279 278 278 278 279 279 279 279 279 280 280 280 280 281 281 281 280 280 280 280 280 280 280 280 280 281 281 281 281 282 282 282 282 282 282 282 282 281 281 281 281 281 281 281 281 280 281 281 281 281 281 281 281 281 281 282 282 282 282 283 283 283 283 283 283 283 283 283 283 283 283 283 283 283 283 283 283 284 284 284 284 284 284 284
279 279 279 279 279 279 279 279 279 279 279 280 280 280 280 280 281 280 280 280 280 280 280 280 280 280 280 280 281 281 281 281 282 282 282 282 282 282 282 282 282 282 282 281 281 281 281 281 281 281 281 281 281 281 281 281 281 282 282 282 282 283 283 283 283 283 283 283 283 283 283 283 283 283 283 283 283 283 283 283 284 284 284 284 284 284
279 279 279 279 279 279 279 279 279 279 279 279 279 280 280 280 280 281 280 280 280 280 280 280 280 280 280 281 281 281 281 281 281 281 281 281 281 282 282 282 282 282 282 282 282 281 281 281 281 281 281 281 281 281 281 281 281 282 282 282 282 283 283 283 283 283 283 283 283 283 283 283 283 283 283 283 283 283 283 283 283 283 284 284 284 284
279 279 279 279 279 279 278 278 278 278 278 279 279 279 279 279 280 280 280 280 280 280 280 280 280 280 280 281 281 281 281 281 281 281 281 281 281 281 282 282 282 282 281 281 281 281 281 281 281 281 281 281 281 281 281 281 282 282 282 282 283 283 283 283 283 283 283 283 283 283 283 283 283 283 283 283 283 283 283 283 283 283 283 283 284 284
279 279 279 279 279 278 278 278 278 278 278 278 278 278 278 279 279 280 280 280 280 280 280 280 280 280 280 281 281 281 281 281 281 281 281 281 281 281 282 282 282 281 281 281 281 281 281 282 282 282 283 283 283 282 282 282 282 282 282 283 283 283 283 283 283 283 283 283 283 283 283 283 283 283 283 284 283 283 283 283 283 283 283 283 283 284
Wind_Speed
3 4 4 3 1 1 1 2 2 1 2 2 3 4 5 6 6 6 6 6 5 6 6 6 7 7 8 9 9 9 9 9 9 10 10 10 10 10 10 10 11 11 12 12 12 12 12 11 11 10 10 10 10 11 11 10 10 9 9 8 7 7 7 7 7 7 7 8 8 9 9 10 10 10 10 9 9 9 9 9 10 10 10 10 9 9
2 2 2 1 1 0 1 2 2 2 2 2 3 3 3 4 4 5 5 5 6 6 6 6 7 8 8 9 10 10 11 11 11 12 12 12 12 12 12 12 13 13 12 12 12 11 11 9 9 8 8 8 8 8 8 7 7 6 6 6 6 6 6 6 7 7 7 8 8 9 9 10 10 11 11 10 10 9 9 9 9 9 9 9 8 8
1 1 1 1 1 0 1 2 2 2 2 3 3 3 3 2 2 2 2 3 3 3 3 4 5 5 6 7 9 11 11 12 12 13 13 13 14 14 14 14 13 12 11 10 9 8 7 6 5 5 5 5 5 5 5 5 5 5 5 5 5 6 6 6 7 7 7 8 8 8 8 9 9 9 10 10 10 10 10 10 10 9 9 9 8 8
2 1 1 1 1 1 1 2 2 3 3 4 4 4 4 3 3 3 3 2 2 2 2 2 2 3 3 5 8 10 11 11 11 11 11 11 11 11 11 10 9 8 7 6 5 4 3 3 4 4 4 4 4 4 4 4 4 5 5 5 6 6 6 6 7 7 7 7 7 8 8 8 8 9 9 9 9 9 10 10 10 10 9 9 8 8
1 0 0 1 1 1 2 3 3 3 4 4 4 5 5 5 5 5 5 3 2 2 2 3 2 2 3 4 7 9 9 8 7 7 7 6 6 6 5 4 4 4 3 3 2 2 2 3 3 3 3 3 3 3 4 4 4 5 5 6 6 6 6 7 7 7 7 7 7 8 8 8 8 8 9 9 9 9 9 9 9 9 9 9 9 9
1 0 1 1 1 1 2 3 3 3 3 4 4 5 5 6 6 6 6 6 5 3 2 2 1 1 1 3 6 7 8 7 7 6 6 6 5 4 3 2 2 2 2 2 2 1 1 2 2 2 2 2 3 3 4 4 5 5 6 6 6 7 7 7 8 8 8 8 8 9 9 9 9 9 9 9 9 9 9 9 9 9 9 9 9 9
1 0 1 1 1 1 2 3 3 3 3 3 3 3 5 6 6 5 5 5 5 5 4 4 3 2 1 3 5 6 6 7 7 7 7 7 6 5 3 2 1 1 1 1 0 0 1 1 1 2 2 3 4 4 5 5 6 6 7 7 8 8 8 9 9 9 10 10 10 10 10 10 10 10 10 10 10 9 9 9 8 8 8 9 9 9
1 1 0 0 0 1 1 2 3 2 2 2 2 3 3 4 4 3 3 3 3 3 3 3 2 1 1 1 3 4 3 4 4 4 5 5 5 4 3 2 1 2 2 2 3 3 4 4 5 5 5 6 6 7 7 8 8 9 9 10 10 10 11 11 11 12 12 12 12 12 11 11 11 11 11 10 10 10 10 10 9 9 9 9 9 10
2 1 1 0 0 0 1 1 2 2 2 1 2 2 3 3 3 2 2 1 1 1 2 2 1 1 1 1 2 2 3 3 3 2 2 1 1 2 3 4 4 4 5 6 6 7 7 8 8 9 9 9 10 10 11 11 12 12 13 13 13 14 14 14 14 14 14 13 13 13 12 12 12 12 11 11 11 11 11 10 10 10 10 10 11 11
2 2 1 1 1 0 1 1 1 2 3 2 1 1 2 3 3 3 2 2 1 1 1 1 1 1 2 2 2 3 4 5 5 5 5 5 5 6 7 7 8 8 8 9 9 10 10 11 11 12 12 13 13 13 14 14 15 15 16 16 16 16 16 16 16 16 15 15 14 14 13 13 13 12 12 12 12 11 11 11 11 11 11 12 12 12
2 2 2 2 1 1 1 1 1 2 3 2 2 1 1 2 3 4 4 3 2 1 1 2 2 3 4 4 4 4 5 4 5 6 7 8 8 9 9 9 10 10 10 10 11 11 11 12 12 13 13 14 14 15 15 16 17 17 18 18 18 18 19 18 18 18 17 16 15 14 14 14 13 13 13 13 13 12 12 13 13 13 13 13 13 13
2 2 2 1 1 1 1 1 1 1 2 2 2 2 1 1 2 3 4 4 4 3 3 3 4 5 6 7 7 7 7 5 4 4 5 7 8 8 8 8 8 8 9 9 9 10 10 11 12 13 13 14 15 16 17 18 18 19 19 19 19 19 19 19 19 18 17 16 15 14 14 13 13 13 13 13 13 13 13 13 14 14 14 14 14 14
1 1 1 1 1 1 0 1 1 1 1 1 1 2 2 2 2 3 4 5 5 4 4 5 6 6 8 9 9 9 8 6 5 5 5 6 6 6 6 7 7 7 7 8 8 9 9 9 10 12 13 15 16 17 17 18 18 18 18 18 18 18 17 16 16 15 14 14 13 13 12 12 12 13 13 13 14 14 14 14 14 14 14 14 14 14
0 0 1 1 1 0 0 1 1 1 1 1 2 2 3 3 4 4 4 5 5 5 5 6 7 7 7 8 9 9 8 7 6 6 6 6 6 6 7 8 8 8 8 8 9 9 9 9 10 12 13 14 14 14 15 15 16 17 17 16 15 14 13 12 12 11 11 11 10 10 11 11 11 11 12 12 13 13 13 14 14 14 15 15 15 15
1 1 1 1 1 0 0 1 1 1 2 2 2 3 3 4 4 4 4 5 5 5 6 7 7 7 6 7 8 8 7 6 5 5 6 6 7 7 8 9 9 9 8 8 9 9 10 10 11 12 12 12 12 12 13 15 16 16 15 14 12 11 10 10 10 9 9 9 9 9 10 10 10 10 11 11 11 12 12 13 13 14 14 14 14 14
1 1 2 1 1 0 0 1 1 2 2 2 2 3 3 4 4 4 4 5 6 6 6 7 7 6 4 5 6 6 5 4 4 5 6 7 8 8 8 8 9 8 8 9 9 10 11 11 11 11 11 10 11 12 14 15 16 15 14 12 10 10 10 9 9 9 9 9 9 9 10 10 10 10 10 10 10 11 11 12 12 12 13 13 13 13
1 2 2 2 1 0 0 0 1 2 2 2 2 2 2 3 4 4 5 5 6 6 6 5 6 5 4 3 3 4 4 5 5 6 7 8 9 9 8 9 9 9 9 10 10 11 11 10 10 10 10 10 11 13 15 16 16 15 13 12 10 10 10 10 10 10 9 9 9 10 10 10 10 10 10 10 10 10 11 11 11 12 12 12 12 12
1 1 2 2 2 1 0 1 1 2 2 3 2 2 3 3 3 4 4 5 5 5 5 5 5 5 6 4 3 4 6 7 7 7 8 9 9 9 8 9 9 9 9 10 10 10 10 10 10 10 10 11 13 14 15 15 14 13 12 12 11 11 10 10 10 10 10 10 10 10 10 10 10 10 10 10 10 10 11 11 11 11 11 12 12 12
1 1 2 2 2 2 1 2 2 2 2 2 2 3 3 3 4 4 4 4 4 4 5 5 5 6 7 7 5 6 8 9 8 8 8 8 9 8 7 7 8 8 8 9 10 10 10 10 10 11 11 12 13 13 13 13 12 12 12 12 11 11 11 11 11 11 11 11 11 11 11 11 11 11 11 11 11 11 11 11 11 11 11 11 11 12
1 1 1 2 2 2 2 2 1 1 1 2 2 3 4 4 4 4 4 4 4 4 5 5 6 7 7 8 7 7 8 9 8 8 7 8 9 8 7 7 7 8 9 9 10 10 10 10 10 10 11 11 11 11 11 11 11 12 12 12 12 12 11 11 11 11 11 11 11 11 11 12 11 11 11 11 11 11 12 12 12 12 12 12 12 12
2 2 1 1 1 2 2 2 1 1 2 3 3 3 4 4 5 4 4 5 5 5 5 6 7 7 8 8 9 9 9 9 8 7 7 7 8 8 7 7 7 8 9 10 10 9 9 9 10 10 10 10 10 10 11 12 12 12 12 12 11 11 11 10 10 10 10 10 10 11 11 11 12 12 12 12 12 12 12 12 12 12 12 12 12 12
3 2 2 1 1 1 2 2 1 2 3 3 3 3 4 4 4 5 5 6 6 6 7 7 8 9 10 11 12 13 12 11 9 7 6 7 8 8 6 6 7 8 9 9 9 9 9 9 10 10 10 10 10 11 11 12 12 12 12 11 10 9 8 7 7 8 8 9 9 9 10 10 11 11 11 11 12 12 12 12 12 12 12 12 13 13
3 2 2 1 1 1 1 1 1 2 2 2 2 2 3 4 5 5 6 7 7 8 9 10 10 12 13 14 15 14 12 10 9 7 5 5 7 7 6 6 7 8 8 9 9 9 9 10 10 11 10 10 10 10 12 12 13 12 10 9 7 7 6 6 6 6 6 7 7 7 8 8 9 9 10 10 10 11 11 11 11 12 12 12 12 13
2 2 2 1 1 1 1 0 1 1 1 1 2 3 4 5 5 6 7 8 8 9 10 10 11 12 12 12 12 11 9 9 9 7 5 5 7 8 7 7 8 9 9 9 9 10 11 11 11 10 10 9 9 10 12 12 12 10 8 7 7 6 6 6 6 7 7 6 7 7 7 7 8 8 9 9 9 10 10 10 10 11 11 11 11 12
1 1 1 1 2 2 2 2 2 2 3 3 3 4 5 6 6 7 7 8 8 9 9 9 10 10 10 9 9 8 7 8 8 7 5 5 7 8 8 8 8 9 9 9 10 11 11 11 11 10 8 8 9 11 12 11 10 9 7 6 6 6 6 7 8 8 8 8 8 8 8 8 8 8 8 9 9 9 10 10 10 11 11 11 11 11
3 3 3 3 3 4 4 4 5 5 5 5 4 5 6 6 7 7 8 8 8 8 8 9 9 8 8 8 8 6 5 7 7 7 6 5 6 8 8 7 7 8 9 9 10 11 11 11 11 9 7 7 8 10 11 11 10 9 8 7 6 7 8 9 9 10 10 11 11 11 10 10 10 10 10 10 10 10 10 10 10 11 11 11 12 12
6 6 6 6 6 6 6 6 6 6 6 5 5 6 6 7 7 8 8 8 8 8 8 8 8 8 8 8 8 7 6 6 6 6 6 5 6 7 7 7 7 8 9 10 10 11 11 11 10 9 7 6 7 8 10 11 11 11 10 9 9 9 9 10 11 11 12 12 13 13 13 12 12 12 11 11 11 11 11 11 11 11 12 12 13 13
7 7 8 8 8 7 7 7 7 7 7 7 8 8 8 8 8 8 8 8 7 8 8 8 7 7 7 7 7 8 7 7 6 5 5 4 5 6 7 7 7 8 9 10 11 11 11 10 9 8 6 6 7 8 9 10 11 11 10 10 10 10 11 11 12 12 12 13 13 13 14 14 14 14 13 13 12 12 12 12 12 12 12 12 13 14
7 7 8 8 8 9 9 10 10 10 10 10 10 10 9 9 9 9 9 8 8 8 8 8 8 7 7 8 9 9 9 8 6 5 5 4 5 6 7 7 7 7 8 9 10 10 9 8 6 5 5 6 7 8 9 9 9 9 9 9 10 10 10 11 11 12 12 13 13 13 14 14 14 14 14 14 13 13 13 13 12 12 12 13 13 14
6 7 7 7 8 8 9 9 10 10 10 10 11 11 11 11 11 11 10 9 9 9 9 8 8 8 8 8 8 7 7 6 6 6 5 4 5 6 6 6 6 7 8 8 8 8 7 5 3 3 4 6 7 8 9 9 9 9 9 10 9 9 9 9 10 11 12 12 12 12 13 13 14 14 15 15 15 14 14 13 13 13 13 13 14 14
5 6 6 7 7 7 8 8 8 9 10 10 11 11 11 12 12 12 11 10 10 9 9 9 9 8 8 7 5 3 4 3 4 5 5 4 4 5 6 6 6 6 7 6 5 4 4 4 3 3 5 7 8 9 10 10 10 10 10 10 9 9 9 9 10 11 12 12 12 11 12 12 13 13 14 15 15 15 15 15 14 14 14 15 15 15
6 6 7 7 7 7 8 8 9 10 10 11 11 11 11 11 12 12 11 11 11 10 10 10 9 9 8 8 6 5 5 4 5 5 5 4 4 5 5 5 6 6 6 5 5 4 2 4 6 7 8 9 10 11 11 10 10 10 10 10 10 10 10 10 11 11 11 11 10 10 11 11 12 12 13 14 14 15 15 15 15 15 16 16 16 16
7 8 8 8 8 9 9 9 10 10 10 10 11 11 11 11 11 11 12 12 12 11 11 10 9 9 9 9 9 9 8 7 6 6 6 4 4 4 5 5 6 6 6 6 6 6 6 7 9 11 12 11 11 11 11 11 10 10 10 10 10 11 11 11 11 11 10 10 10 9 10 10 10 11 11 12 12 13 14 14 15 15 16 16 16 16
8 8 9 9 9 9 9 9 10 10 10 10 10 10 10 10 10 11 11 12 12 12 12 11 10 9 9 9 9 9 9 7 6 5 6 4 4 4 5 6 6 6 7 7 7 7 9 10 11 11 12 12 12 11 11 11 10 9 9 10 11 12 12 12 12 11 10 10 10 9 9 9 9 9 9 10 10 11 11 12 13 14 15 16 16 16
8 9 9 9 9 9 9 9 9 9 9 9 9 9 9 9 9 10 10 11 11 11 12 11 11 10 9 9 8 8 8 6 4 5 5 4 4 5 6 6 6 6 7 7 7 7 8 10 11 11 12 12 12 12 10 9 9 9 9 10 10 11 12 12 11 11 11 11 10 10 9 8 8 8 8 9 9 9 10 11 11 12 13 15 15 16
8 9 9 9 9 9 9 8 8 8 8 8 8 8 8 8 8 8 8 9 9 10 11 11 11 11 11 10 10 9 9 7 6 5 5 5 5 5 6 6 6 6 7 7 8 8 8 10 11 11 11 11 11 11 10 9 8 9 10 10 11 11 12 12 12 12 12 11 11 10 9 9 9 9 9 9 9 9 10 11 12 12 13 14 15 16
9 9 9 9 8 8 8 8 8 7 7 7 7 7 7 8 8 8 8 9 9 10 10 11 11 12 12 13 13 13 13 12 11 10 9 9 8 8 7 8 8 8 8 8 9 9 9 10 10 11 10 10 9 9 10 10 10 11 11 12 12 12 13 12 12 11 11 11 11 11 10 10 10 11 11 10 10 10 10 11 11 12 12 13 14 15
8 9 9 8 8 7 7 7 7 7 7 6 6 7 7 7 7 7 8 9 10 11 12 12 12 13 13 14 15 16 17 17 17 16 15 15 14 13 12 11 11 10 10 10 9 10 10 10 9 9 9 9 10 10 11 12 12 12 12 13 13 13 13 12 11 11 11 11 11 11 11 11 12 12 12 11 11 11 11 11 11 11 11 12 13 14
8 8 8 8 7 7 7 7 7 6 6 6 7 7 8 8 9 9 9 10 10 12 13 13 13 14 14 15 16 17 18 19 19 19 19 19 19 18 17 15 14 13 12 11 10 10 10 10 9 9 9 10 10 11 11 11 12 13 13 14 13 13 12 11 10 10 11 12 12 12 12 12 12 12 12 11 11 11 11 12 11 11 11 11 12 12
8 8 8 7 7 7 7 7 7 7 7 7 8 9 10 10 10 10 10 10 10 11 12 12 13 13 14 14 15 16 17 18 18 18 18 17 17 17 17 16 14 13 11 11 11 10 11 11 11 11 11 11 11 12 12 12 12 13 13 13 12 12 11 11 11 12 13 13 13 13 13 12 12 12 12 12 12 12 12 12 12 11 11 11 11 12
8 8 8 7 7 6 6 7 7 8 8 9 10 10 10 10 9 9 9 9 9 9 10 10 11 12 12 13 14 15 16 16 16 16 15 15 15 14 14 15 14 12 11 10 10 11 11 11 11 12 12 12 12 12 13 13 13 12 12 12 13 14 14 14 14 13 13 13 12 12 12 12 11 12 12 12 13 13 12 12 12 12 12 12 13 13
8 8 8 7 7 6 6 7 8 9 9 10 10 10 10 9 8 8 7 8 8 8 8 9 9 10 11 12 13 13 13 13 13 14 14 14 14 13 13 13 12 11 10 10 10 10 11 11 11 12 12 12 12 12 13 13 13 12 12 12 13 14 15 14 12 11 11 11 11 11 11 11 12 12 12 13 13 13 13 13 13 14 14 14 14 14
8 8 8 7 7 7 8 9 10 10 10 10 10 10 9 9 8 8 7 7 8 8 7 8 8 9 9 10 11 12 12 12 12 12 12 13 12 12 11 10 10 10 10 10 10 10 10 11 11 12 12 12 12 13 13 14 14 13 12 12 13 12 12 12 12 11 10 11 11 12 12 12 13 13 13 13 13 13 13 13 14 14 15 15 15 16
9 9 9 10 10 11 11 11 11 10 9 9 9 9 9 8 8 8 8 8 8 8 7 7 7 8 9 10 10 10 10 10 10 10 11 11 11 10 10 9 9 9 9 10 10 10 10 10 11 12 12 12 12 13 14 14 14 14 14 13 13 13 13 13 14 14 13 13 13 13 13 13 14 14 14 14 14 14 14 14 14 14 15 15 15 16
10 11 11 11 11 10 10 10 9 8 8 8 9 9 9 8 8 8 8 8 8 8 7 7 7 7 8 9 9 9 9 8 8 9 9 10 10 10 10 10 9 9 10 11 12 11 11 11 11 11 11 12 12 13 14 14 15 15 15 14 14 14 15 16 15 15 15 15 15 14 14 14 14 14 15 15 15 14 14 14 14 14 15 15 15 16
11 11 11 11 10 10 9 9 8 8 8 9 9 9 9 8 9 9 9 9 8 8 8 8 8 8 8 8 8 8 7 7 7 7 8 9 10 10 11 11 11 11 11 12 13 13 13 13 12 12 12 12 13 14 15 15 15 15 15 15 14 14 15 15 15 15 15 15 15 15 14 13 14 14 15 15 15 15 15 15 14 15 15 15 15 15
10 10 10 10 9 9 9 8 8 8 8 9 9 9 9 9 9 9 10 9 9 8 8 8 9 9 9 9 9 8 7 7 7 7 7 7 8 9 10 11 11 12 12 13 14 14 15 15 15 14 14 13 14 15 16 16 15 15 16 15 15 14 15 15 15 14 14 14 15 14 14 14 14 14 15 15 15 15 15 15 15 14 14 15 15 16
10 10 10 10 9 9 9 8 8 8 8 9 9 9 9 9 9 10 10 10 9 9 9 9 9 10 10 10 10 9 9 8 8 8 7 7 8 8 9 10 11 11 12 13 14 15 16 17 17 17 17 16 16 16 17 16 16 16 16 15 15 15 15 15 15 14 14 14 14 14 14 14 14 14 14 15 15 16 16 15 15 15 15 15 15 16
11 11 10 10 10 10 9 9 9 9 9 9 9 9 9 9 9 10 10 10 10 9 9 10 10 10 10 11 10 10 10 9 9 9 9 8 8 8 9 9 10 10 11 12 13 14 16 17 18 19 20 20 19 18 18 18 17 17 16 16 15 15 15 15 15 14 14 14 14 14 14 15 14 14 15 15 16 16 17 17 16 16 16 16 16 17
12 12 11 11 11 10 10 10 10 9 9 9 9 9 9 9 9 10 10 11 10 10 10 10 11 11 11 11 11 10 10 10 10 9 10 9 9 9 9 9 9 9 9 10 11 12 13 15 17 19 20 21 21 21 21 20 19 18 17 16 16 15 15 15 15 14 14 14 14 14 14 15 15 15 15 15 16 17 18 18 18 17 17 16 16 17
12 12 11 11 11 11 11 11 10 10 10 9 9 9 9 9 9 10 10 11 11 12 11 11 11 11 11 11 11 11 11 11 10 10 10 10 9 9 9 9 9 9 8 8 9 9 10 10 12 14 17 19 20 21 22 22 20 18 17 17 16 15 15 15 15 14 14 14 14 14 14 15 15 15 15 15 16 17 18 18 18 18 17 16 16 16
Wind_Direction
280 293 300 309 343 33 345 328 336 356 358 347 347 349 349 349 345 340 337 336 337 336 331 324 320 316 310 302 296 295 295 298 300 302 303 303 303 302 301 301 301 301 301 301 301 300 299 298 296 293 290 288 287 289 290 291 291 293 295 298 300 301 303 303 304 305 304 300 297 294 292 288 286 285 288 286 281 274 271 276 281 286 292 295 295 294
306 310 320 339 18 56 332 324 326 335 353 339 332 336 347 353 349 342 338 339 342 342 337 332 327 323 316 304 294 289 289 290 292 294 295 296 296 296 295 295 296 296 296 296 297 297 296 294 292 289 288 290 292 296 299 303 307 312 317 320 322 323 322 321 318 316 313 309 306 304 302 299 297 295 293 291 285 279 276 278 281 285 288 291 292 292
115 25 350 356 15 35 308 331 324 317 319 319 318 318 319 324 326 326 325 334 338 339 335 335 333 330 321 307 297 292 291 291 291 290 290 290 290 290 290 291 292 292 293 294 295 297 299 298 297 297 301 308 315 321 326 333 337 340 343 343 343 342 339 335 329 323 319 314 310 306 303 303 302 301 300 299 296 289 282 280 280 281 283 286 287 288
126 110 1 348 346 327 305 316 319 316 314 320 326 331 330 328 319 307 298 296 287 279 285 297 303 306 303 298 297 300 302 302 299 296 295 294 292 292 292 293 294 296 299 303 307 311 318 319 322 327 335 344 350 353 353 351 350 349 347 344 341 337 333 330 326 322 317 314 310 305 302 299 297 296 296 296 296 293 285 280 278 278 279 280 281 281
121 135 276 315 327 315 308 305 315 327 332 340 348 356 358 354 345 341 343 339 315 276 267 270 277 287 291 289 299 310 321 325 325 324 322 318 315 312 311 313 317 322 328 334 342 348 351 348 347 350 355 357 357 353 349 345 341 338 334 330 327 324 323 320 316 314 314 311 310 308 306 302 297 294 292 291 290 289 285 280 277 275 274 275 276 279
125 179 252 273 293 305 314 324 341 354 349 352 356 359 360 359 0 2 5 7 8 3 349 334 331 331 311 298 314 330 345 354 0 2 2 357 352 349 349 355 4 11 11 14 16 16 8 0 353 348 339 332 329 330 328 327 323 319 317 314 311 309 310 307 305 305 306 304 304 305 304 301 299 297 294 291 288 286 285 285 281 275 273 274 278 282
142 186 259 254 270 292 314 342 0 9 2 347 341 341 343 353 1 8 7 7 10 15 15 18 24 30 353 321 335 349 360 4 7 9 8 7 6 2 357 357 16 39 40 39 1 277 257 262 266 271 278 283 290 298 300 304 303 301 300 298 296 296 297 296 297 298 298 296 296 296 295 295 296 295 294 292 288 286 285 286 285 282 278 279 282 285
159 167 195 217 269 293 312 341 353 2 9 349 335 326 326 337 347 353 354 358 5 11 11 8 10 18 22 352 356 0 359 359 0 3 5 8 7 359 347 328 291 266 257 254 252 254 254 255 259 264 269 274 279 283 285 288 288 288 288 287 288 289 290 290 291 292 292 292 291 290 290 289 289 290 289 289 287 285 283 283 283 282 281 283 285 285
164 170 173 179 231 294 305 325 338 338 334 340 341 335 328 324 320 317 316 323 338 349 351 353 349 345 352 355 354 343 325 312 302 295 306 307 317 318 307 297 287 279 275 271 270 269 268 269 269 272 275 278 280 282 284 284 285 285 285 285 286 287 288 288 289 289 288 288 287 287 286 284 282 282 283 283 282 281 281 281 279 278 279 280 282 283
170 173 180 180 179 224 278 295 317 325 329 334 343 335 328 326 321 310 289 261 263 309 336 338 324 309 304 315 321 323 318 313 305 298 290 278 275 279 283 286 288 288 288 286 284 282 281 280 280 281 282 283 285 286 286 287 287 287 287 287 287 288 288 288 288 288 287 286 285 283 281 279 277 277 277 276 276 277 277 276 275 275 275 276 277 278
175 176 183 180 174 195 230 252 273 314 335 336 323 299 305 326 332 326 311 294 287 308 329 323 299 286 286 291 298 304 306 312 314 310 306 303 300 298 296 296 297 297 297 297 296 295 294 293 291 290 290 289 289 290 290 290 290 291 290 290 290 289 289 288 287 286 285 283 282 280 279 277 275 273 273 272 272 273 273 273 272 270 270 271 272 272
172 171 183 184 180 183 207 229 255 287 316 310 288 270 270 336 344 333 324 315 314 319 323 318 303 291 286 286 289 293 296 301 304 304 305 308 310 310 307 305 304 304 303 303 303 302 301 300 299 297 295 293 293 294 294 294 293 293 293 292 291 291 290 288 286 284 281 279 278 277 276 275 273 271 271 270 270 270 271 271 271 270 271 271 271 271
143 145 183 195 186 171 192 254 264 270 285 303 312 333 4 3 349 329 316 306 307 313 315 311 301 291 287 288 290 292 294 295 294 294 296 298 300 299 297 295 293 294 296 297 297 297 298 297 295 293 293 294 296 296 296 295 294 294 294 294 294 294 293 292 289 286 282 279 276 276 276 275 274 273 272 271 270 269 269 269 269 269 270 272 273 273
91 117 217 215 200 156 49 318 306 306 339 5 0 354 350 344 336 320 304 295 297 306 310 304 296 285 278 281 286 290 293 294 297 298 298 296 295 293 290 288 287 288 292 294 294 294 294 292 290 289 291 294 296 296 293 291 291 292 294 296 297 298 298 297 295 292 288 284 282 280 280 279 278 276 275 273 271 270 269 269 269 268 268 270 271 272
23 329 285 261 234 178 28 343 336 342 9 16 358 337 328 323 320 315 305 301 305 311 312 304 296 284 268 270 279 286 291 298 305 308 304 299 296 295 293 291 289 290 292 294 294 293 292 290 289 289 291 292 292 289 285 286 289 293 296 298 299 299 298 297 296 295 292 289 286 284 283 282 281 279 278 275 274 272 270 270 269 268 268 268 269 269
356 331 311 291 273 237 66 9 346 342 345 345 336 326 321 317 319 321 318 314 314 315 313 310 305 296 275 270 275 281 288 302 311 311 306 299 295 294 293 289 287 287 289 291 292 292 292 290 289 288 288 288 286 283 283 287 291 296 298 297 295 294 294 294 294 293 292 290 287 285 283 282 281 280 279 277 275 274 272 272 270 269 268 268 268 269
347 328 315 301 290 275 91 24 320 307 306 305 305 308 309 311 316 319 318 316 314 312 311 313 312 308 297 281 282 293 299 309 312 309 304 297 294 293 289 283 282 284 288 291 293 293 293 291 289 286 284 282 281 281 285 290 295 298 298 294 291 290 290 291 291 291 289 286 284 283 282 281 279 278 277 276 275 273 270 269 269 267 267 267 267 267
315 313 308 300 299 309 345 304 285 285 288 291 295 299 298 297 301 304 306 306 307 310 312 312 310 303 299 299 312 321 315 319 318 313 305 297 295 294 289 284 282 285 289 293 295 295 293 290 286 283 281 281 282 285 290 296 299 300 298 294 290 287 286 286 287 286 285 283 281 280 279 278 277 276 275 274 271 269 268 268 268 266 264 264 263 263
277 287 291 296 303 309 303 287 285 288 299 306 313 314 309 302 299 297 295 297 300 306 309 308 300 292 290 294 302 313 318 322 321 315 305 297 295 294 291 286 284 286 289 292 295 295 293 289 286 285 285 287 291 294 298 300 301 299 296 292 289 286 284 282 281 281 281 280 279 277 275 274 274 273 273 272 270 269 268 266 265 265 265 263 261 259
296 282 280 296 304 305 294 287 285 296 306 308 320 322 317 309 304 300 298 301 302 300 297 292 287 284 284 285 291 302 313 319 320 314 304 298 296 295 291 285 283 285 289 292 295 296 294 291 289 289 290 292 294 296 298 298 297 295 293 290 288 287 285 283 281 279 278 277 276 275 274 273 271 270 270 269 268 267 266 265 265 264 264 264 263 260
306 297 290 296 307 307 304 314 315 275 266 272 297 318 316 312 310 310 311 314 312 306 298 289 284 285 287 287 287 290 298 304 307 307 302 298 295 294 292 286 283 286 291 294 298 300 297 294 292 292 291 291 291 292 293 294 294 294 292 290 289 288 288 288 288 287 284 281 278 276 274 272 271 270 269 267 267 266 265 264 263 263 263 263 264 264
307 305 306 299 290 295 303 316 315 292 283 287 307 323 315 317 318 318 318 319 315 309 302 294 290 288 288 286 284 285 287 288 287 289 296 296 294 295 297 292 288 289 291 296 300 302 299 296 293 292 291 290 290 290 292 296 298 299 297 293 291 290 291 294 296 294 289 286 282 279 276 274 272 271 269 267 265 264 263 263 262 262 262 261 261 262
297 299 304 297 272 265 280 296 302 303 311 328 333 315 307 310 311 312 311 310 306 301 296 291 289 288 287 285 287 287 285 277 271 272 281 287 291 296 302 299 295 292 291 296 299 301 300 297 296 295 293 291 288 288 294 302 306 306 301 294 288 286 288 290 288 283 278 275 273 271 267 267 266 265 263 261 260 259 258 258 258 257 257 256 256 256
294 299 301 284 246 214 204 235 278 293 317 334 320 307 299 298 297 295 294 295 294 292 289 289 289 289 289 290 291 288 276 263 260 262 266 276 286 293 300 300 297 293 292 295 298 301 302 301 299 298 297 290 285 288 297 308 314 313 305 293 284 280 281 279 272 266 264 264 264 263 259 260 259 256 256 254 254 253 252 252 252 252 251 252 252 253
257 261 261 250 227 212 211 226 248 260 271 286 302 309 309 306 302 298 296 293 289 287 286 287 287 287 291 295 296 287 264 257 258 259 257 273 285 292 296 298 297 295 294 296 300 303 304 302 301 300 297 290 286 290 301 313 321 323 316 300 286 277 274 272 267 264 264 266 267 265 264 264 261 258 258 255 254 252 251 251 250 250 251 251 253 253
224 229 236 245 248 247 247 252 257 261 266 275 286 296 301 303 303 300 297 292 288 285 285 285 286 289 295 299 300 294 274 270 272 269 260 270 284 291 295 298 298 297 298 300 304 305 304 300 298 297 294 287 287 293 304 316 326 330 327 317 303 289 281 277 274 271 269 268 265 263 262 261 261 260 259 259 258 257 257 256 256 257 257 258 258 258
244 246 249 255 259 262 263 264 265 265 265 268 273 279 287 294 297 296 292 287 286 287 288 289 291 294 296 296 295 294 291 289 285 277 266 267 278 289 294 299 302 302 302 303 304 304 301 296 293 292 288 281 280 289 303 314 322 325 324 319 311 302 295 289 285 281 277 273 269 265 263 261 259 258 259 259 260 260 259 260 260 261 262 263 262 262
272 267 265 265 265 265 266 265 263 263 263 265 269 275 280 285 285 283 279 281 284 287 287 287 288 291 293 291 292 293 294 291 281 268 262 265 274 284 292 300 305 307 309 309 308 306 303 297 291 286 278 273 279 290 302 311 315 315 313 308 303 298 294 292 290 288 284 280 275 271 267 264 261 259 257 258 259 259 260 260 261 262 263 263 263 263
300 294 286 278 275 274 274 272 270 269 268 269 270 272 273 272 269 268 269 274 279 281 280 278 278 281 284 288 290 291 289 284 269 253 256 271 280 284 294 302 309 314 320 319 318 315 311 302 289 275 268 275 289 300 308 309 308 305 301 297 294 291 290 289 290 290 290 287 283 278 272 267 264 260 258 256 256 257 257 258 259 260 261 261 261 261
303 299 293 285 281 281 282 280 277 275 273 272 272 271 268 265 261 259 261 265 269 270 271 272 272 276 281 287 291 290 283 275 257 250 261 275 283 288 299 305 311 319 328 330 327 322 317 311 293 270 277 292 304 309 311 308 304 300 297 295 294 292 291 290 291 293 295 294 291 286 279 273 268 264 260 257 255 255 255 255 255 256 257 258 258 258
289 286 283 281 280 279 277 276 274 273 273 273 272 270 268 264 260 257 256 256 257 258 261 264 266 269 273 279 285 287 282 285 268 264 274 276 279 287 300 307 311 317 325 332 330 323 320 316 309 300 304 310 310 309 307 305 302 300 298 296 295 294 293 292 293 295 297 297 294 290 284 279 274 269 265 261 258 256 254 253 252 253 254 254 256 256
285 284 283 282 280 277 274 271 270 271 273 273 273 271 268 265 261 256 252 250 249 250 252 255 259 261 262 261 260 263 276 293 295 290 289 280 275 281 294 303 307 310 313 313 304 296 296 300 302 305 307 308 307 305 304 302 300 299 297 296 294 293 294 296 297 298 297 295 292 288 285 281 278 275 271 267 263 260 256 253 251 250 251 252 254 255
283 283 282 281 280 277 274 273 272 273 273 274 273 272 269 265 261 256 251 248 246 245 244 248 252 255 256 256 256 259 267 278 289 294 293 284 277 280 289 296 299 301 302 296 286 278 275 282 293 300 304 305 305 304 303 301 300 298 297 295 293 294 297 301 302 301 300 297 293 289 285 283 282 280 278 275 270 266 261 256 253 250 249 249 251 253
282 281 279 279 277 275 273 271 270 271 271 272 272 271 269 265 261 257 254 251 248 244 241 240 243 247 252 256 257 259 262 268 276 282 280 278 278 282 288 290 291 293 296 293 289 283 280 283 291 299 303 304 304 302 301 300 299 298 295 294 295 297 300 304 305 303 301 298 296 295 292 289 286 284 282 280 277 273 268 262 256 251 249 248 248 250
281 279 278 276 275 273 270 268 268 268 269 270 269 268 265 263 261 259 257 255 252 248 242 238 237 240 246 253 258 259 259 262 271 278 275 275 279 283 286 284 285 289 292 292 292 292 290 290 294 298 302 304 303 302 300 300 300 298 295 295 296 299 300 301 301 299 297 296 295 294 293 290 287 283 280 277 275 272 269 266 261 255 251 248 247 247
280 278 276 275 273 271 269 267 267 267 269 269 267 264 262 261 260 259 256 255 253 251 246 242 239 238 239 244 250 253 254 256 266 278 282 280 279 281 282 280 281 285 290 290 290 290 291 292 294 296 297 299 300 301 301 302 301 299 298 297 297 296 296 296 296 295 294 294 293 291 289 286 283 280 278 275 272 269 268 267 265 262 257 252 249 248
278 276 275 273 271 269 267 266 266 267 267 267 265 262 260 260 259 257 254 253 252 251 249 246 244 242 241 242 245 246 247 249 252 258 265 267 269 272 274 275 276 278 282 284 286 287 289 291 293 294 292 291 292 297 302 304 304 302 300 299 298 297 296 297 298 297 295 293 291 289 287 284 282 281 281 280 278 275 272 271 269 267 263 259 255 252
274 273 272 271 269 267 265 265 265 265 265 264 263 261 259 258 256 255 253 254 255 255 254 253 252 251 250 250 251 251 251 252 253 255 258 261 263 266 268 270 272 272 271 273 276 280 283 285 289 291 290 288 288 291 297 301 303 302 300 300 299 298 298 301 301 299 293 290 288 286 284 283 283 284 285 286 285 281 278 276 274 272 268 264 261 258
270 269 270 270 269 267 266 265 265 265 264 262 261 259 259 259 258 256 255 255 257 260 262 262 262 262 261 261 262 262 263 263 264 264 265 265 265 265 265 266 267 267 267 266 267 269 272 274 277 281 286 289 290 292 295 296 298 299 301 302 302 300 299 300 298 293 288 285 284 284 283 282 283 284 285 285 284 282 279 278 277 274 271 268 267 267
271 270 270 270 269 268 266 265 264 264 263 263 263 263 265 266 266 264 260 257 257 259 263 267 268 269 269 269 269 269 271 273 275 275 274 273 271 269 266 263 261 262 264 263 261 261 262 264 268 271 276 281 287 290 293 292 293 296 300 303 302 299 298 297 294 291 289 288 286 285 284 283 282 281 281 281 281 280 278 278 277 276 273 271 270 271
274 272 272 272 272 269 266 264 264 265 265 266 269 270 271 271 269 266 264 259 257 256 258 262 266 268 269 268 269 270 273 275 277 278 278 277 276 275 271 264 259 257 257 258 257 256 256 259 263 268 271 276 281 285 286 288 289 292 295 295 294 295 296 295 295 295 295 293 291 288 285 283 281 279 279 279 279 279 279 278 276 275 273 271 270 270
274 272 272 273 273 272 270 268 268 269 270 272 272 271 269 266 263 259 257 256 256 256 257 260 262 265 268 269 270 270 270 270 270 271 272 275 276 276 274 267 259 252 249 252 254 254 254 256 260 264 268 273 278 282 284 285 286 288 288 288 291 295 297 296 297 298 297 294 291 288 284 282 280 280 279 279 278 277 276 274 273 272 270 269 269 269
271 270 270 270 269 268 269 271 273 274 274 273 269 266 264 260 255 252 251 253 255 256 258 260 262 266 269 271 272 272 271 269 267 265 265 269 272 274 273 269 258 247 241 244 250 254 255 256 258 261 264 269 273 276 280 283 285 286 284 285 289 293 294 294 296 296 294 290 287 285 283 282 281 281 280 279 278 276 274 272 270 270 268 268 269 269
268 267 267 268 269 272 274 276 277 276 273 267 263 261 259 254 250 248 248 251 254 257 259 261 262 265 266 268 271 273 274 273 267 261 261 266 270 272 271 268 260 248 238 238 244 251 256 257 258 260 264 266 268 271 275 279 282 283 283 283 282 280 280 284 289 291 290 288 286 285 284 284 283 283 282 280 278 277 275 272 270 269 268 268 267 267
264 266 268 270 274 276 276 275 274 272 266 261 259 257 255 251 248 246 246 249 254 256 256 256 258 260 261 263 267 271 273 271 263 257 257 260 264 268 269 267 262 254 245 241 242 246 252 256 259 262 265 266 265 267 270 274 278 280 281 281 279 277 276 279 283 285 286 286 286 286 286 286 286 285 283 281 280 278 276 274 272 271 270 267 266 264
264 267 269 273 274 273 269 270 269 267 262 259 257 255 253 250 247 245 246 248 251 252 252 251 252 253 257 261 264 268 270 269 263 256 252 252 256 261 265 265 263 259 253 249 249 249 249 253 257 262 267 268 267 266 266 269 272 275 278 279 279 278 278 279 280 280 281 283 284 285 286 286 285 284 283 282 281 280 278 276 273 271 271 269 267 264
260 264 267 269 268 266 266 267 265 262 260 258 257 255 253 250 248 246 247 247 248 249 250 249 248 249 253 257 260 262 264 264 262 257 249 246 248 252 256 260 261 260 258 258 258 257 255 255 256 258 261 265 267 267 267 266 267 269 273 276 277 278 278 278 278 279 279 280 281 283 285 285 284 283 283 283 283 281 280 277 275 273 271 270 269 267
256 259 261 262 262 261 260 260 259 259 258 258 258 257 254 251 248 247 246 246 245 245 246 246 246 248 251 253 254 255 256 257 257 255 252 248 244 244 246 250 253 256 259 261 262 262 262 261 259 256 255 256 259 264 266 266 264 265 267 270 273 275 276 277 278 279 279 279 279 280 281 281 281 281 282 283 283 281 280 279 277 274 273 271 270 269
254 255 256 256 256 255 255 256 256 256 257 259 259 259 258 254 249 247 246 245 243 243 243 244 246 249 251 252 252 252 252 253 253 252 251 249 247 245 244 245 247 250 254 258 260 262 264 264 261 257 254 251 252 256 261 263 263 263 264 266 268 270 272 275 277 278 278 278 279 279 279 278 276 276 277 278 279 279 280 279 279 277 275 273 271 270
252 252 253 252 252 252 253 254 254 254 255 257 259 260 261 259 255 250 247 245 243 242 242 243 245 248 251 252 252 251 250 250 250 250 248 247 245 243 243 244 245 249 254 257 261 264 266 267 266 263 259 254 251 250 252 256 260 262 263 263 264 266 268 272 275 277 277 276 277 278 278 276 274 272 270 270 273 276 278 279 279 278 277 275 273 272
250 251 251 250 250 251 252 252 252 252 253 255 257 259 261 261 259 255 250 246 244 242 242 242 243 246 248 251 251 250 249 248 248 248 246 244 242 241 240 240 241 243 249 255 261 265 268 272 273 271 266 258 253 251 250 251 254 257 259 260 262 263 265 268 273 276 277 276 276 276 275 274 271 268 266 265 269 273 276 278 279 279 278 277 275 274